Погода в Мяундже

Россия / Магаданская область     63°03′05″N   147°10′51″E
В апреле 2022 года жителям России запретили посещать сайт meteo.paraplan.net по решению Генеральной прокуратуры. Аудитория сайта уменьшилась в 10 раз. Владельцы сайта не видят смысла в поддержке погодного сервера в таких условиях. Сайт будет закрыт в октябре.
темп.,
°C
ветер,
м/с
пор.,
м/с
влажн.,
%
обл.,
%
осадки,
мм/ч
давл.,
гПа
погр.,
м
29 сентября, чт
чт2923:00−5всв229199 0.0 100718
02:00−5всв2290100 0.0 100751
05:00−5всв2294100 0.2 100699
08:00−6св2294100 0.3 100668
11:00−4св2380100 0.3 1005405
14:00−2св2369100 0.0 1004644
17:00−1св237196 0.0 1003350
20:00−5св118696 0.0 100514
30 сентября, пт
пт3023:00−6ссв229059 0.0 100622
02:00−7ссв229199 0.0 100624
05:00−7с229197 0.0 100730
08:00−7ссз128878 0.0 100661
11:00−4ссз227483 0.0 1005366
14:00−3ссз226890 0.0 1004681
17:00−2ссз226994 0.0 1004641
20:00−6сз118994 0.0 100711
1 октября, сб
сб123:00−8сз119554 0.0 100810
02:00−9ссз119643 0.0 101010
05:00−10ссз119638 0.0 101110
08:00−10с119530 0.0 101212
11:00−6ссв11788 0.0 1011281
14:00−4с116898 0.0 1011680
17:00−4св116795 0.0 1011635
20:00−7в018669 0.0 101310
2 октября, вс
вс223:00−9всв119173 0.0 101510
02:00−10св119359 0.0 101610
05:00−11ссв119349 0.0 101710
08:00−11с119245 0.0 101810
11:00−7ссз117432 0.0 1017315
14:00−5сз2172100 0.1 1016614
17:00−5сз117297 0.2 1016555
20:00−7ююз008797 0.1 101710
3 октября, пн
пн323:00−8юз009395 0.1 101711
02:00−9юз009796 0.1 101812
05:00−10сз009896 0.1 101811
08:00−10сз009784 0.1 101931
11:00−8з1086100 0.1 1018340
14:00−6всв1170100 0.0 1015641
17:00−5в1170100 0.1 1013582
20:00−7всв1184100 0.0 101414